{"data":{"norad_id":64947,"epoch":"2026-09-20T21:57:26.983296Z","epoch_age_seconds":88372,"freshness":"FRESH","line1":"1 64947U 25158R   26263.91489564  .00012562  00000+0  39087-3 0  9991","line2":"2 64947  97.2845 122.1248 0002066  87.3236 272.8243 15.33438156 64760","mean_motion":15.33438156,"eccentricity":0.0002066,"inclination_deg":97.2845,"raan_deg":122.1248,"arg_perigee_deg":87.3236,"mean_anomaly_deg":272.8243,"bstar":0.00039087,"rev_number":6476,"period_min":93.906623776486,"perigee_km":464.14962895166,"apogee_km":466.97744601375,"semimajor_km":6843.7005374827,"source":"CELESTRAK","updated_at":"2026-09-21T09:00:35.489340Z"}}